GFSSW_500_spd_000.txt.gz
Wind_Speed
26 24 26 31 43 46 46 46 44 41 39 38 36 32 27 26 25 24 23 22 20 19 18 19 19 18 17 16 16 14 13 13 12 11 9 10 11 11 10 10 11 13 16 17 16
22 23 28 39 43 43 44 43 41 38 35 36 35 31 27 26 24 24 23 22 20 19 18 18 18 18 17 17 16 14 14 12 12 11 11 12 12 13 11 11 11 16 16 16 17
28 30 36 37 39 39 39 38 36 32 29 30 33 30 27 25 24 23 24 23 21 20 19 18 18 18 18 17 16 15 13 13 14 14 14 15 14 15 12 12 13 19 18 18 19
33 32 34 34 34 35 34 33 28 25 22 24 30 29 26 24 22 22 23 23 22 21 20 19 19 19 18 17 17 16 14 15 15 17 17 17 15 17 15 13 15 17 24 22 23
38 37 35 34 32 31 29 26 23 20 18 21 27 26 25 23 22 22 22 23 23 22 21 20 20 19 20 19 19 17 17 17 18 19 19 19 18 18 17 18 18 19 21 24 25
37 37 35 33 30 27 24 21 19 16 17 19 24 25 24 22 23 22 23 24 24 23 22 21 20 21 21 22 23 20 22 20 20 20 21 22 22 20 19 21 21 22 22 23 25
34 32 30 28 26 23 20 18 15 14 14 16 20 23 22 23 23 22 23 24 25 24 23 22 22 23 22 24 23 23 24 23 21 22 23 26 23 21 26 26 25 26 25 25 26
32 30 26 24 21 19 16 13 11 9 10 12 16 20 21 23 23 23 23 24 25 25 25 24 24 24 26 24 27 26 26 26 26 25 27 30 23 28 25 29 27 28 28 27 27
28 26 24 21 18 14 11 9 7 6 7 8 11 16 19 22 24 24 26 26 27 27 26 26 26 26 27 28 29 28 28 30 31 28 32 31 28 32 26 33 30 30 30 27 27
24 22 21 18 14 11 8 6 5 5 6 8 9 12 15 18 22 24 26 28 28 28 28 28 29 30 30 30 29 35 30 33 35 31 35 32 31 35 31 33 33 30 29 28 27
16 15 14 13 10 8 6 6 6 8 9 9 11 12 13 16 19 21 25 27 29 30 30 32 33 30 33 34 32 36 34 36 36 40 34 34 36 37 36 33 33 30 32 31 29
17 14 10 6 3 2 5 7 9 11 12 13 15 15 17 18 20 22 24 27 29 31 35 34 34 36 38 35 36 38 39 40 40 44 40 36 40 37 36 34 32 33 34 31 32
14 12 10 8 7 8 9 11 14 16 18 20 22 23 24 25 26 27 29 31 32 35 36 38 40 41 38 40 40 41 42 42 45 46 43 44 41 38 37 36 33 34 36 32 34
16 14 11 9 10 11 13 15 17 20 22 23 26 25 27 30 32 32 35 36 37 38 40 43 43 41 41 44 43 44 45 46 45 48 46 46 45 41 35 34 35 36 34 33 36
15 16 17 18 17 17 18 19 21 22 25 25 24 26 28 32 31 34 35 38 40 42 45 45 44 47 46 44 47 47 47 46 46 47 47 48 49 39 38 37 33 36 34 33 38
17 19 20 19 22 22 25 26 27 28 29 27 29 32 33 35 34 34 37 40 40 43 45 45 48 46 45 47 47 46 44 45 45 47 50 44 44 42 38 40 40 38 38 37 40
21 22 23 24 23 25 27 29 32 32 35 35 33 32 35 37 39 40 41 41 41 43 44 43 48 47 47 47 46 45 44 45 47 49 48 43 46 44 42 41 42 41 42 40 44
29 31 32 31 30 33 32 32 30 33 37 41 39 41 41 40 40 44 46 46 45 46 45 48 48 47 44 45 42 43 45 47 48 46 46 47 50 46 42 42 42 42 43 42 45
37 37 39 38 42 46 47 45 38 38 40 40 41 44 48 49 47 48 49 48 48 48 51 48 51 45 49 43 44 47 50 42 47 47 49 48 47 43 42 43 44 42 40 39 44
43 43 45 46 50 51 51 49 47 45 47 48 46 46 49 52 55 55 56 55 48 48 48 51 54 49 54 54 47 49 49 49 48 50 51 50 47 46 45 48 46 40 41 41 42
49 50 51 50 54 58 60 57 52 43 49 55 52 50 52 56 58 60 59 57 58 53 50 52 52 55 60 60 54 49 49 53 51 52 53 55 52 47 49 50 48 47 45 43 45
50 51 52 56 56 56 57 58 59 57 47 51 54 55 58 60 62 65 67 64 58 59 59 55 54 56 61 59 57 59 57 57 61 57 57 58 59 52 51 51 51 49 42 40 45
56 58 57 59 59 60 60 59 57 58 58 54 54 59 62 64 67 67 68 66 68 65 67 63 59 61 59 63 68 64 63 58 58 56 62 63 60 51 55 52 48 48 45 45 47
57 60 62 63 62 61 61 61 58 54 55 56 57 59 61 69 72 68 71 73 72 73 69 71 69 67 71 66 62 65 61 60 60 63 61 64 58 53 52 51 46 46 44 47 44
62 64 66 68 66 67 69 65 56 54 53 57 58 65 68 68 71 76 79 79 78 70 76 73 74 73 71 67 63 63 65 62 66 64 65 56 57 47 43 42 39 44 49 50 41
70 71 72 74 72 72 66 59 63 61 56 57 62 68 73 79 78 81 80 65 66 74 68 73 83 83 79 72 67 67 66 66 69 65 64 59 57 43 38 43 35 47 50 47 43
76 79 79 78 79 80 67 66 60 58 58 59 64 69 72 66 66 75 76 66 65 55 64 66 64 75 84 77 75 75 74 70 68 70 64 60 48 38 39 41 37 42 46 46 45

GFSSW_500_spd_003.txt.gz
Wind_Speed
29 29 21 23 34 45 48 44 41 40 38 35 32 29 26 25 24 22 22 20 20 19 19 20 21 20 20 20 20 18 16 15 13 9 8 12 13 12 12 11 10 16 19 19 21
29 25 23 26 41 45 44 41 38 37 35 33 31 28 26 25 23 23 21 20 20 19 19 20 19 19 18 18 18 16 16 14 11 10 13 13 15 15 11 13 13 17 19 19 21
24 22 27 38 42 43 40 37 35 33 32 29 29 27 25 24 23 22 21 20 19 18 18 18 17 17 17 17 17 16 14 14 15 14 13 15 15 17 13 15 13 18 21 21 22
32 33 37 40 39 37 34 30 28 25 23 26 26 26 23 23 21 20 20 20 19 19 18 18 16 16 17 17 17 16 15 16 16 18 15 19 16 20 17 16 16 20 23 26 26
38 38 37 36 34 31 28 25 20 17 14 17 22 24 21 20 21 21 20 21 21 20 19 18 17 17 18 18 19 18 17 19 19 21 19 20 20 22 21 19 20 23 24 26 29
43 39 37 31 29 27 23 20 16 12 11 14 18 20 18 18 19 20 20 21 22 21 21 20 19 21 22 21 23 22 22 24 21 22 22 23 23 22 24 24 24 24 27 27 29
41 38 35 31 27 23 19 16 12 10 10 11 14 17 18 19 20 20 20 21 22 22 22 23 24 23 22 25 26 26 26 25 23 25 25 27 23 23 32 26 27 28 29 30 31
36 34 31 27 24 21 17 12 9 8 7 8 11 15 17 18 20 21 21 22 24 25 26 27 27 26 26 26 29 29 29 26 28 28 29 32 23 28 30 27 33 31 31 33 34
33 31 28 24 20 17 13 10 7 4 2 3 6 11 15 16 19 22 23 24 25 27 28 30 30 29 29 30 31 29 30 33 33 31 34 34 29 30 32 31 34 35 34 34 34
27 24 22 20 17 14 11 8 6 4 2 3 4 7 12 16 19 21 25 27 29 29 30 32 33 32 31 31 29 35 37 35 36 34 37 35 31 34 34 34 36 38 36 35 34
23 22 19 16 13 10 6 3 1 2 4 5 7 8 10 12 15 20 23 25 29 30 32 36 37 31 34 37 35 38 38 36 37 40 41 36 31 35 39 35 35 37 41 39 35
20 17 14 11 8 5 3 3 5 6 9 11 12 12 14 15 16 18 22 24 25 27 34 35 34 35 40 39 37 39 42 39 42 42 44 42 33 38 39 39 39 39 41 38 38
19 16 14 11 10 8 7 7 9 9 11 16 18 19 21 23 24 25 27 28 29 30 33 35 35 39 41 40 41 41 44 44 46 48 46 45 42 42 41 41 40 40 39 41 39
19 19 17 14 12 11 11 12 12 14 14 16 20 19 21 25 26 29 33 35 36 36 39 42 40 41 44 44 45 46 45 48 48 49 49 49 49 45 43 41 42 39 41 40 41
18 19 20 19 20 21 21 20 19 17 18 18 20 23 25 27 27 28 31 36 38 40 43 44 46 44 47 44 47 50 50 50 50 50 53 52 56 46 44 43 43 41 42 38 42
23 25 23 22 23 21 20 20 24 26 31 28 25 25 27 30 32 34 35 38 40 42 44 43 47 47 44 46 48 50 50 48 50 52 56 51 52 45 44 44 42 40 39 39 41
27 27 28 30 29 30 30 27 27 26 34 35 33 35 34 34 35 35 39 42 43 44 44 45 47 48 48 47 48 46 46 47 52 55 54 49 52 48 45 46 47 41 40 38 41
32 32 31 33 34 33 33 33 32 32 35 39 39 37 35 39 42 44 43 43 44 46 50 52 51 47 46 47 43 47 48 51 54 55 53 51 57 49 46 41 45 42 40 39 40
29 30 32 36 36 37 37 36 36 38 42 42 44 47 45 40 46 49 52 53 50 47 53 55 55 50 51 49 47 51 54 44 49 53 56 52 49 44 42 40 39 38 37 35 40
33 35 37 39 40 41 41 44 45 43 44 48 51 51 50 47 48 50 53 58 56 54 53 56 60 54 54 55 56 56 53 53 54 56 55 53 51 47 41 40 38 38 37 36 40
35 34 38 41 44 45 47 49 51 52 48 49 53 55 55 54 53 55 59 60 61 60 62 62 59 57 56 61 59 57 58 59 55 55 57 58 57 46 42 41 41 41 41 39 41
36 40 43 45 46 48 50 51 53 53 50 51 53 55 57 55 59 60 62 66 67 63 64 59 62 70 65 60 60 59 59 57 62 64 61 62 64 45 46 48 45 46 43 41 43
43 43 48 49 52 54 55 58 57 53 53 55 58 56 57 59 65 64 64 65 67 66 67 64 60 68 73 69 65 71 66 64 64 63 66 66 61 45 48 49 49 46 44 42 45
46 46 49 52 55 58 60 61 61 62 60 54 56 56 59 61 66 69 65 67 70 70 67 71 75 72 79 74 69 71 67 63 61 64 67 69 61 53 49 48 50 48 43 45 45
48 48 51 57 61 64 68 69 70 69 64 59 60 62 67 67 69 72 72 73 71 73 66 65 76 75 76 79 81 77 73 70 72 73 74 67 67 54 50 47 44 44 46 42 44
47 52 56 61 66 69 70 72 73 73 74 73 72 68 68 74 75 80 83 80 79 71 59 58 57 65 79 67 79 81 76 76 79 73 76 73 71 62 54 42 42 41 46 44 45
53 57 60 63 70 71 73 77 77 79 76 66 69 70 70 74 75 70 64 68 71 67 56 55 67 74 73 70 80 85 80 74 75 72 72 76 62 61 57 46 41 41 49 43 48

GFSSW_500_spd_006.txt.gz
Wind_Speed
29 24 18 18 31 44 47 44 41 37 35 34 31 28 25 22 21 21 20 20 18 17 18 19 21 23 23 22 21 22 22 18 15 11 12 15 14 13 13 13 14 16 16 17 21
28 22 18 21 37 46 45 42 39 35 34 32 29 27 24 23 22 21 20 20 19 18 18 19 19 21 22 22 21 21 20 19 14 14 16 16 14 15 14 15 13 18 19 20 21
27 20 21 29 43 46 42 40 37 33 32 31 28 26 23 23 23 21 20 20 19 19 19 19 19 20 20 20 19 19 19 17 18 18 17 17 16 17 17 17 18 19 23 21 23
21 27 32 40 44 41 38 35 32 28 29 28 26 25 23 22 20 20 20 19 19 19 19 19 19 19 19 18 18 18 19 18 19 19 19 19 19 21 18 19 21 21 23 24 25
34 36 40 42 39 36 33 29 25 19 18 22 23 22 21 20 21 21 20 20 19 20 19 19 19 19 20 19 19 18 19 19 23 23 21 21 20 22 21 21 25 25 24 25 28
43 41 39 36 33 30 26 23 18 14 11 13 17 19 19 19 20 20 20 20 20 20 21 21 21 22 21 21 22 22 23 25 26 25 25 23 23 21 23 26 27 27 28 27 28
42 39 36 33 31 28 24 20 15 11 9 10 12 16 16 16 18 19 20 20 20 21 22 23 24 23 22 24 24 25 26 27 25 28 29 29 24 21 31 27 27 29 32 32 31
40 38 36 32 28 24 20 16 13 11 8 7 8 12 14 15 17 19 21 21 21 23 24 25 25 26 25 26 27 28 29 28 27 32 33 34 24 28 32 30 30 32 32 32 33
32 31 29 28 25 21 18 15 12 9 8 7 6 9 10 14 18 19 22 23 23 24 26 27 29 29 28 30 31 30 30 31 34 34 36 36 31 31 35 34 34 34 33 32 34
28 26 24 22 19 17 14 12 9 8 7 5 3 4 8 12 14 17 21 24 25 27 28 30 32 33 31 32 32 35 38 37 35 33 38 39 34 34 37 39 37 35 35 35 35
24 21 19 17 14 12 9 7 4 2 1 1 4 5 7 9 11 15 17 22 25 28 31 35 36 31 32 38 39 40 40 40 36 39 43 43 40 32 39 42 39 37 36 37 37
22 20 17 14 10 8 5 3 2 3 5 6 8 10 12 13 14 17 19 21 23 26 30 30 31 29 39 40 40 42 43 42 40 42 49 48 43 37 40 40 41 38 39 39 40
21 18 15 14 12 11 9 7 6 7 10 9 12 15 16 19 20 23 24 26 28 29 32 35 33 35 39 41 43 43 44 45 47 48 50 51 45 42 37 39 40 41 41 41 40
18 17 16 13 10 7 6 5 6 10 9 14 15 15 18 19 20 23 26 29 30 31 37 41 36 40 43 45 45 46 44 50 51 53 52 52 53 46 43 41 40 41 42 43 43
19 18 17 17 17 16 15 11 10 9 10 15 17 20 23 25 25 27 31 33 33 35 38 38 39 40 44 42 47 50 50 52 54 56 57 55 59 51 47 42 40 43 45 41 40
23 23 22 21 22 24 24 24 20 20 21 20 21 22 23 25 28 31 35 39 40 43 45 42 44 47 43 43 46 49 51 51 52 55 62 53 56 51 48 46 45 42 41 41 39
20 20 18 19 19 22 25 23 23 26 31 31 33 32 30 29 31 34 38 40 43 47 48 49 48 49 53 50 47 44 46 49 55 59 59 50 55 54 45 42 43 45 44 37 36
23 23 23 23 22 23 24 24 26 30 31 31 33 36 40 39 42 40 45 45 47 50 53 54 53 54 53 56 54 52 50 55 59 58 56 54 60 46 41 37 34 39 41 37 33
25 26 24 24 25 27 30 31 32 33 35 38 39 43 43 44 46 48 49 50 52 54 58 62 62 59 60 60 59 59 62 52 53 57 60 61 56 48 40 37 35 31 37 37 33
30 30 29 30 30 31 34 34 35 36 35 39 43 46 46 45 47 50 54 57 58 62 64 66 71 67 67 66 66 66 61 63 61 63 65 64 60 50 43 40 37 36 35 34 34
30 30 32 30 31 34 35 36 38 40 42 43 45 49 50 52 53 53 56 57 61 65 71 74 77 68 68 69 65 65 67 64 65 65 67 68 65 47 44 45 41 39 35 33 35
36 34 35 34 33 34 36 40 42 46 47 50 53 56 56 56 60 59 58 58 60 63 67 76 80 79 73 76 70 65 65 66 67 71 71 71 72 50 46 45 45 42 38 35 37
35 34 33 33 36 40 42 45 48 50 53 56 60 61 63 66 69 68 68 67 68 71 76 79 78 79 82 79 76 72 70 71 66 65 72 76 73 52 52 49 45 43 41 39 37
33 34 34 37 40 41 44 49 53 55 58 61 66 70 74 76 75 80 84 85 78 77 80 76 64 65 71 74 77 70 68 68 71 73 70 74 72 59 58 56 50 46 44 43 41
36 35 38 42 45 49 51 53 57 61 64 70 73 78 82 85 85 85 82 83 83 85 81 72 73 73 69 70 74 81 68 72 73 77 76 77 76 63 60 59 54 51 47 44 47
36 37 40 45 48 51 53 58 62 65 69 74 79 83 86 88 86 87 80 78 80 83 79 73 75 70 77 76 73 88 89 75 68 71 75 81 75 66 64 66 63 56 47 46 47
40 42 45 49 51 54 58 63 67 70 75 80 88 90 87 83 81 74 69 66 66 69 70 72 64 56 57 61 86 85 76 85 89 76 65 69 78 79 67 62 65 60 48 45 48

GFSSW_500_spd_009.txt.gz
Wind_Speed
30 27 27 30 31 39 43 43 41 39 36 33 30 27 23 19 18 18 19 19 19 20 21 21 22 24 24 23 21 21 19 18 17 15 16 15 15 15 17 19 18 16 16 16 20
23 20 22 26 30 41 43 42 40 37 35 32 29 25 22 20 18 17 18 17 18 18 18 20 21 23 25 24 22 22 21 22 20 16 19 20 15 17 18 19 19 20 19 19 21
21 17 20 29 35 41 41 41 38 35 32 30 28 25 22 20 17 17 16 16 16 16 16 17 19 20 20 21 22 21 21 25 21 22 23 20 18 18 18 19 22 21 22 19 23
19 19 27 33 40 41 40 37 34 32 29 28 26 24 21 20 18 17 16 16 17 17 18 19 20 20 20 21 20 20 23 24 23 23 22 22 22 19 19 21 22 23 23 23 23
26 31 34 39 40 39 36 33 30 26 23 25 24 22 19 18 18 18 18 18 19 19 19 20 20 21 21 20 20 21 23 24 25 24 23 23 23 23 18 23 25 27 24 25 27
38 39 39 39 36 33 28 24 21 17 16 19 21 20 19 17 17 17 17 19 19 20 21 21 21 22 22 22 23 23 24 26 26 26 24 26 26 24 21 27 27 26 27 28 27
43 41 38 36 32 29 27 23 19 16 15 15 16 16 16 15 16 17 18 19 20 21 22 22 23 23 23 25 24 25 26 27 26 29 30 31 29 21 30 29 28 29 30 31 30
41 40 38 35 32 28 24 20 16 14 13 14 14 16 17 16 17 19 20 20 21 22 23 23 24 25 25 27 27 28 29 28 25 32 36 37 27 28 34 31 31 33 32 33 32
34 32 30 28 25 21 18 17 14 12 11 11 12 14 15 17 18 17 20 22 23 25 25 26 28 28 27 28 31 30 31 32 33 34 39 40 35 30 38 37 36 35 35 36 35
28 26 24 22 20 17 15 13 11 9 8 8 8 10 11 14 15 17 20 22 25 27 28 29 31 29 27 31 32 37 40 38 37 34 40 43 40 35 39 42 42 38 38 38 37
24 21 19 16 14 12 9 8 6 4 4 3 6 6 10 10 13 16 19 22 24 26 30 33 34 26 30 37 40 40 41 41 38 38 44 45 47 39 40 46 41 39 41 40 38
21 19 17 15 12 10 7 4 2 2 4 7 9 12 12 12 14 16 19 21 23 25 29 30 30 31 35 40 41 41 43 42 40 40 50 51 50 47 40 42 44 43 43 42 43
21 19 17 14 11 8 5 2 1 4 7 7 10 13 14 18 20 23 24 26 28 28 33 36 33 33 37 40 42 41 43 44 46 47 52 56 53 49 44 43 45 46 43 46 46
17 17 15 12 10 7 6 6 6 8 10 12 10 14 16 17 19 24 26 28 28 30 37 41 36 39 42 45 45 48 45 49 51 55 56 54 60 52 48 46 43 42 43 46 48
18 17 14 11 10 10 6 4 4 5 8 11 13 17 18 21 24 26 30 32 33 36 39 40 39 40 44 44 47 52 51 53 55 59 61 59 65 55 56 49 43 40 45 46 47
17 16 15 14 14 14 14 16 15 13 16 18 15 16 18 21 24 28 34 37 40 42 44 45 45 48 47 49 51 53 57 57 58 62 67 62 63 61 55 55 49 42 42 44 42
15 17 19 17 15 14 14 17 18 21 21 22 23 24 25 28 30 33 35 36 39 43 44 46 49 51 53 57 55 55 57 61 65 69 71 66 65 65 58 52 47 41 35 35 38
17 18 18 18 19 21 20 21 23 23 23 25 25 27 28 30 33 35 38 40 41 46 51 53 51 52 55 60 63 66 63 66 70 71 69 68 75 67 61 55 49 44 33 35 36
19 19 21 23 23 23 22 25 28 27 27 28 30 32 31 34 37 40 41 43 46 49 54 59 58 59 58 58 60 63 69 66 69 74 76 79 77 73 64 56 51 45 43 35 33
24 24 27 28 27 26 25 27 28 29 31 31 34 35 37 39 44 46 49 52 56 59 64 65 68 64 65 66 66 68 67 70 72 74 79 83 82 76 66 61 51 48 48 40 32
27 27 27 28 25 23 24 25 28 31 32 35 37 39 41 44 48 53 57 60 66 69 68 73 77 77 76 75 74 72 73 69 65 66 75 80 84 75 70 62 58 54 52 46 36
25 25 26 26 24 25 27 29 32 35 39 39 41 44 46 51 56 60 65 72 78 82 83 78 81 86 85 80 81 84 80 79 79 80 77 80 88 73 68 61 58 59 56 49 40
28 27 28 28 27 29 31 33 35 38 39 42 46 49 52 57 62 68 73 80 85 90 92 88 88 91 93 88 86 85 81 78 73 78 76 82 83 74 73 68 66 65 59 50 42
29 29 30 29 30 34 36 38 40 42 44 48 51 53 56 60 69 76 83 86 89 93 93 91 92 87 89 89 87 89 77 53 60 70 78 80 80 72 68 71 73 70 66 60 51
31 33 31 33 36 39 41 44 46 47 50 52 54 56 62 69 76 82 88 92 94 93 89 86 87 80 82 83 81 84 83 80 70 65 72 71 78 81 73 66 62 70 67 63 59
35 32 36 39 41 41 43 47 48 50 53 55 57 60 70 78 84 87 94 98 100 93 84 69 70 65 71 71 65 64 70 77 76 82 90 79 74 68 73 70 69 71 71 63 60
39 40 41 43 43 44 45 46 50 54 56 58 63 69 77 83 89 95 99 97 92 82 63 52 55 54 58 49 45 55 56 53 56 51 59 68 74 87 79 67 71 73 70 61 57

GFSSW_500_spd_012.txt.gz
Wind_Speed
30 29 29 31 32 30 36 39 39 36 35 32 28 25 23 20 19 17 17 20 22 22 20 20 22 22 22 22 20 20 17 14 14 17 15 16 15 15 16 17 18 19 19 18 17
27 26 27 29 28 29 34 38 37 36 33 30 27 24 21 18 16 15 15 18 20 19 19 19 20 20 22 23 22 21 19 19 20 19 17 20 17 15 16 18 20 21 20 19 19
23 24 26 25 26 30 33 37 36 34 31 28 25 23 19 17 15 13 14 16 17 16 15 17 19 20 21 23 24 21 21 24 22 22 21 24 19 17 17 18 23 22 22 21 21
24 25 26 25 29 32 36 35 34 32 29 25 23 21 18 15 14 13 14 15 15 15 15 16 18 18 19 20 21 19 22 25 24 24 24 24 22 19 18 22 22 23 24 23 23
26 28 30 30 34 36 36 33 31 28 25 22 21 19 17 15 14 13 13 15 16 15 16 18 19 19 20 20 20 20 23 23 25 24 25 26 24 24 18 26 23 24 24 24 25
30 32 34 36 36 35 33 30 26 22 19 19 20 18 16 14 13 13 13 14 16 17 18 20 20 21 22 21 22 21 23 24 24 24 25 26 28 24 19 31 26 26 25 26 27
37 37 36 35 34 31 27 24 21 18 17 19 19 18 16 13 15 16 16 16 17 18 20 21 22 23 23 24 23 24 25 26 25 26 29 32 31 19 29 34 30 29 30 29 27
37 36 35 33 31 29 26 22 18 17 18 20 21 20 18 18 18 18 18 18 18 19 21 23 24 25 24 25 26 28 28 27 25 30 34 38 30 23 34 37 33 35 34 33 32
32 30 29 27 25 22 19 17 15 13 13 15 16 17 18 18 18 17 19 19 20 21 23 25 27 26 25 27 30 30 32 33 33 35 38 40 38 24 35 39 37 38 37 37 35
29 28 26 23 21 19 17 15 12 11 10 9 10 12 13 15 17 18 20 21 22 23 26 28 30 28 26 31 34 36 39 37 37 34 41 43 43 34 38 41 42 40 39 39 39
26 24 21 20 17 15 12 10 9 7 6 5 7 8 11 13 15 17 19 20 22 24 28 29 32 26 32 37 40 39 41 41 37 38 45 47 49 45 40 46 44 40 41 41 39
23 20 18 16 14 12 9 6 4 3 2 4 5 9 10 11 14 16 18 20 22 24 27 29 29 30 33 37 41 42 44 43 42 41 49 52 51 49 46 44 46 47 44 41 43
20 18 16 14 12 9 5 3 0 3 4 6 8 10 11 13 16 19 21 23 25 28 32 34 32 33 36 40 44 45 47 48 49 47 49 56 51 50 47 47 46 47 47 46 44
16 15 13 11 9 6 5 4 5 6 7 6 7 9 12 14 16 19 22 24 26 28 32 35 33 36 40 42 45 49 49 54 56 59 58 55 61 54 49 49 47 46 45 48 48
15 14 10 9 7 6 4 4 4 5 5 8 9 13 15 16 19 22 25 27 29 32 34 35 38 42 44 44 48 52 54 54 57 60 63 60 66 49 54 52 51 48 49 49 51
16 15 14 12 11 10 10 11 12 11 15 14 12 14 17 18 21 22 24 25 27 29 32 33 37 40 43 47 51 55 58 62 64 66 68 62 68 55 54 60 59 54 50 44 45
13 13 12 13 13 14 15 15 15 16 18 14 17 17 19 21 23 23 24 27 31 34 31 33 36 39 44 48 52 56 60 65 69 71 69 70 73 57 58 62 62 61 58 45 41
15 16 16 17 18 20 18 18 20 22 20 19 20 21 22 24 26 27 30 31 34 39 44 44 43 47 51 52 56 58 63 66 72 73 73 74 77 66 65 63 63 63 64 55 43
18 19 19 20 23 24 24 23 22 23 23 24 26 27 29 30 32 34 36 40 44 47 50 55 57 60 64 66 69 67 67 68 75 79 82 82 80 75 70 68 67 67 64 59 51
16 18 20 20 22 23 23 23 23 24 26 28 31 33 37 37 38 41 44 47 51 53 58 63 67 68 72 70 74 75 78 80 77 79 86 87 87 83 78 76 73 71 70 66 60
20 20 22 23 23 23 24 24 25 27 29 32 34 37 38 40 42 46 49 51 54 59 66 72 76 74 80 83 87 87 84 78 81 82 78 88 94 86 85 83 80 75 68 60 54
24 24 24 23 24 26 26 27 29 31 33 36 38 40 42 44 47 51 52 54 60 67 73 75 81 82 87 93 94 91 86 82 81 75 72 77 92 88 89 89 86 83 77 65 52
27 28 27 29 29 27 29 32 34 36 39 41 42 43 46 49 53 57 56 59 67 74 81 87 94 99 97 101 101 96 90 79 64 64 67 76 81 69 75 76 74 81 86 78 67
33 33 32 33 31 33 36 40 41 41 41 45 45 48 50 54 58 60 61 66 72 78 86 96 100 103 106 105 104 102 89 76 67 72 74 79 77 68 60 70 72 74 74 72 64
35 35 34 35 36 38 40 42 43 44 45 47 48 51 54 60 63 62 66 70 70 80 92 101 105 102 102 91 80 72 70 68 67 61 58 66 71 80 84 81 66 80 72 66 65
37 38 38 38 39 40 40 43 47 48 48 50 55 58 60 63 61 62 67 72 76 84 94 100 104 89 94 65 58 61 55 45 47 49 51 50 53 53 53 67 82 86 72 72 72
41 42 42 42 43 44 45 47 50 51 51 53 57 59 60 58 61 65 69 75 86 92 98 99 90 72 70 51 49 47 35 36 39 27 29 35 39 37 43 48 58 79 86 79 69

GFSSW_500_spd_015.txt.gz
Wind_Speed
30 30 31 32 32 31 31 36 36 33 32 30 29 26 24 22 20 18 17 18 20 21 22 22 20 20 21 21 21 20 16 14 15 12 16 19 15 16 16 16 17 18 18 17 17
31 31 31 31 29 28 30 37 33 33 31 30 27 25 22 20 18 15 16 17 18 20 21 21 19 20 19 20 20 19 17 17 18 16 16 20 19 17 14 17 19 21 19 19 20
31 30 28 26 26 26 32 35 33 32 31 28 25 23 20 17 14 14 15 15 16 18 19 21 20 19 19 21 21 18 18 20 20 21 19 21 23 18 15 15 22 20 20 20 21
27 25 24 24 26 28 34 34 32 32 30 27 24 20 18 15 13 12 13 12 13 16 18 20 19 18 19 19 19 18 19 20 23 23 21 24 24 21 17 20 21 22 21 22 23
23 25 27 27 30 33 34 33 30 30 27 24 21 18 16 13 12 11 11 11 12 15 18 19 18 18 19 18 19 19 19 18 22 21 21 23 24 24 17 24 24 24 25 24 24
29 28 29 32 34 36 34 30 29 28 24 21 20 18 16 13 12 12 11 11 12 15 17 19 20 21 20 21 21 20 20 20 21 22 22 25 26 23 17 26 28 27 26 27 25
32 32 33 34 34 32 31 28 26 23 22 20 19 18 16 14 15 14 14 14 15 17 18 19 21 23 22 24 23 23 22 23 23 25 27 30 26 18 29 32 31 29 29 30 28
33 33 33 32 31 29 27 25 24 22 21 20 19 19 17 16 15 14 16 16 18 18 19 20 23 23 23 24 24 26 27 26 26 30 32 34 22 23 32 36 35 35 35 35 34
31 30 29 28 26 25 22 19 15 15 16 18 19 19 18 17 16 16 17 18 19 19 20 21 23 23 23 26 29 30 32 31 29 32 36 39 35 25 35 39 40 40 39 38 38
30 28 27 25 22 19 17 15 13 12 12 12 14 14 14 15 16 17 18 18 19 21 22 24 25 24 26 33 33 34 36 35 33 31 40 43 41 37 37 43 45 43 42 42 42
26 25 24 22 20 18 15 13 10 8 5 4 6 7 9 10 12 13 15 17 19 21 23 25 24 25 30 33 36 37 39 41 36 36 45 45 47 44 39 44 45 46 46 45 44
22 21 19 17 15 12 11 9 7 7 7 6 6 7 7 9 11 13 14 16 18 20 24 24 23 27 29 34 36 38 40 40 41 40 45 47 45 45 43 42 46 47 48 48 47
20 18 16 14 12 10 7 5 3 1 2 5 6 9 9 12 15 17 17 18 19 22 25 26 27 28 32 34 38 40 43 45 47 46 45 52 49 46 45 45 44 46 46 46 48
15 15 14 12 11 9 8 6 4 4 4 4 6 7 9 12 15 18 18 19 21 22 24 26 28 30 32 33 39 41 42 46 48 51 50 48 53 43 46 47 47 46 47 49 51
15 14 13 11 10 10 9 9 8 6 7 8 8 10 11 14 16 17 18 20 22 22 22 23 25 25 25 29 31 36 40 43 45 48 50 51 56 45 50 52 52 55 53 49 48
14 13 12 12 11 11 10 8 8 7 9 11 11 14 16 16 16 17 18 21 22 23 24 24 27 30 33 36 40 46 49 52 54 57 59 58 61 51 55 57 60 57 58 56 54
13 12 12 12 10 12 12 11 11 12 14 14 14 16 17 18 20 21 23 25 28 30 29 33 34 38 39 46 48 53 58 63 64 65 66 68 72 62 61 63 63 65 65 64 60
14 14 14 14 14 15 15 15 16 16 14 16 17 19 19 22 23 26 28 31 32 35 39 42 43 46 51 54 57 61 65 69 75 75 77 76 79 75 75 74 73 72 73 73 72
12 12 14 15 15 16 18 19 20 20 20 21 24 25 27 30 32 33 34 35 39 40 45 49 49 52 54 60 64 66 73 74 80 83 87 88 92 89 86 83 80 78 74 76 76
18 18 17 17 16 16 17 20 20 21 22 24 26 28 31 35 38 40 41 43 45 47 51 54 59 58 63 64 67 71 75 79 79 84 92 99 99 101 97 93 89 83 80 78 78
17 18 19 19 19 20 21 21 21 22 25 27 30 34 36 38 39 40 43 47 48 52 56 58 61 62 69 70 76 81 88 89 90 88 78 93 108 105 97 88 84 81 81 80 78
20 21 22 21 22 23 23 25 27 29 32 34 35 37 39 42 43 43 45 48 53 58 59 61 64 68 70 73 81 89 98 101 94 96 92 67 81 93 82 73 71 74 76 77 72
25 25 25 26 25 25 26 27 31 33 35 36 38 40 43 46 49 50 53 57 60 63 62 66 70 77 78 85 96 99 100 103 97 82 84 67 76 64 66 70 75 80 78 79 76
29 29 29 29 30 29 29 30 32 35 38 41 43 45 47 49 51 53 57 59 60 62 65 70 73 77 84 87 94 99 102 104 89 79 62 60 59 55 51 55 66 81 85 83 80
32 32 32 34 33 31 33 35 37 39 41 44 47 49 51 50 52 56 58 58 59 64 67 72 76 81 87 92 99 100 100 77 54 50 51 54 51 39 32 33 36 47 58 71 72
33 34 33 33 33 35 37 39 41 44 46 48 48 49 52 53 56 55 57 60 62 65 71 76 80 86 88 95 96 94 68 46 40 40 43 46 46 45 34 34 37 39 44 47 55
35 35 35 35 38 37 37 39 45 49 48 49 50 51 52 54 53 51 54 59 64 69 72 78 85 92 96 95 89 71 43 36 40 41 45 49 46 45 43 39 41 44 45 44 34

GFSSW_500_spd_018.txt.gz
Wind_Speed
32 29 33 36 37 36 34 33 38 34 32 29 27 26 25 24 22 20 18 19 21 22 21 20 20 19 20 21 21 20 17 15 17 17 14 15 17 16 16 16 20 20 21 22 20
30 32 33 35 36 34 32 33 36 33 30 28 26 26 24 23 20 19 18 18 19 21 21 21 20 21 22 23 22 22 19 18 19 19 17 17 18 19 16 17 20 22 25 22 21
34 34 33 33 33 31 29 32 33 30 29 27 26 25 23 20 19 16 16 16 18 19 20 20 20 21 23 22 21 19 19 18 19 20 19 19 20 21 19 16 23 24 23 22 24
34 32 32 31 31 31 30 33 32 30 29 28 26 24 21 18 16 14 13 15 15 16 17 17 17 19 22 20 20 19 20 19 20 21 20 21 21 23 21 21 24 24 22 22 25
29 29 29 30 30 30 32 33 31 29 28 27 25 22 19 17 14 13 14 15 15 15 15 15 16 18 19 19 20 18 20 20 20 21 22 21 23 24 19 25 28 27 25 26 26
26 27 29 29 32 34 34 32 30 29 28 26 24 21 19 17 15 14 13 14 14 15 15 16 18 20 21 23 24 21 22 22 21 24 24 24 22 21 24 33 32 29 29 30 29
28 28 28 31 33 34 31 30 29 28 26 24 22 21 19 18 17 15 15 15 15 15 16 18 20 21 21 23 23 25 24 24 24 27 28 28 19 21 32 33 32 34 34 34 32
30 33 34 35 34 31 29 27 27 26 24 23 21 20 19 18 16 16 17 16 16 15 17 18 20 21 22 23 25 27 28 26 25 28 31 33 20 27 30 34 36 37 37 37 36
32 32 32 31 30 28 27 26 24 22 21 20 19 19 18 18 17 16 15 14 15 16 17 19 21 21 22 27 29 28 30 29 28 29 37 39 31 27 32 38 39 39 40 40 41
29 28 26 24 22 21 19 16 14 13 13 13 13 13 12 12 14 14 14 14 15 16 17 19 20 21 26 28 28 31 32 32 30 32 39 40 39 33 34 40 40 41 43 45 45
29 27 26 23 20 18 16 15 13 12 10 8 9 7 9 11 12 12 12 14 15 17 18 19 18 23 24 27 28 29 31 31 30 31 39 36 39 35 31 36 41 41 42 44 46
24 23 21 20 17 15 14 13 11 8 5 3 1 3 6 8 10 10 12 14 16 18 20 20 21 25 27 28 31 32 33 33 33 32 37 39 37 36 34 31 35 40 41 43 46
20 19 17 16 15 13 10 8 7 4 2 1 3 5 7 10 11 12 15 16 17 19 20 21 23 25 26 28 32 32 32 33 34 30 29 37 37 34 31 28 32 36 39 42 47
17 16 15 14 13 12 10 9 7 5 5 2 2 3 5 8 10 12 14 16 18 19 20 21 22 22 22 22 27 28 28 32 35 39 40 41 45 38 44 44 42 45 45 44 42
15 13 13 13 12 10 8 6 5 3 1 4 6 7 8 12 14 15 17 19 20 20 20 21 22 24 25 29 32 36 37 41 44 46 50 51 52 50 50 55 55 56 55 57 56
14 13 12 10 9 9 7 6 4 5 7 9 10 10 12 14 16 18 20 21 23 23 24 26 28 29 32 37 40 43 47 50 51 54 56 61 60 58 60 60 62 67 67 65 64
11 10 10 7 6 7 7 7 7 8 10 11 11 13 14 16 17 20 22 24 27 28 28 29 33 35 37 42 44 48 52 55 58 60 60 64 63 56 65 71 72 73 76 80 81
10 10 10 10 10 9 10 9 10 10 10 11 14 13 16 19 22 24 27 30 31 33 36 37 40 42 47 48 51 54 57 60 65 67 67 68 72 70 78 83 86 84 85 88 90
11 11 11 10 9 9 10 11 12 13 14 16 18 20 21 25 29 34 34 36 37 37 40 43 45 47 52 56 59 61 62 65 71 72 79 79 86 84 85 90 97 98 97 99 102
12 12 13 12 11 10 11 13 13 14 15 17 21 23 27 29 32 35 36 38 40 41 45 49 53 55 56 57 60 62 65 69 75 82 88 89 91 97 100 101 104 104 102 102 104
10 11 11 12 12 13 14 15 15 18 20 23 25 27 29 32 35 38 41 42 43 46 48 51 55 56 60 64 66 67 73 77 81 85 91 98 96 99 100 100 102 100 101 93 92
13 14 15 16 16 16 16 17 18 19 21 24 26 30 34 37 40 41 44 45 46 48 51 55 57 57 60 65 69 75 79 82 90 91 96 100 110 106 109 100 87 84 83 72 71
15 16 18 18 19 20 17 16 19 22 25 28 32 35 39 41 44 44 46 46 48 52 55 57 57 59 63 70 75 76 79 83 89 98 103 105 108 93 88 73 59 52 51 46 48
16 18 20 20 21 22 22 24 26 27 28 32 36 40 43 45 47 48 48 49 48 52 54 56 57 60 65 70 73 77 81 88 95 101 103 98 78 72 57 53 46 39 43 39 39
18 20 21 24 24 25 26 28 29 32 35 39 42 45 45 44 43 42 43 47 46 50 54 58 61 66 69 71 73 76 85 92 95 97 93 80 58 53 52 48 43 46 45 46 44
20 21 23 26 27 29 28 30 32 35 37 41 43 42 40 41 42 42 44 47 50 53 57 61 64 67 68 71 74 79 87 90 84 74 63 52 49 46 48 45 41 43 45 44 41
26 26 28 30 31 32 33 34 36 39 42 43 44 42 42 42 43 43 45 49 52 54 59 63 66 66 67 73 77 84 81 80 77 57 44 45 40 42 46 44 40 42 44 45 44

GFSSW_500_spd_021.txt.gz
Wind_Speed
35 35 41 46 43 37 35 32 36 33 31 29 25 24 25 22 20 18 17 20 21 20 19 19 19 19 18 18 18 18 17 17 18 18 19 20 16 17 18 19 20 23 25 23 24
33 36 38 42 40 36 34 30 33 32 29 27 24 24 23 21 18 17 17 18 20 21 21 20 20 20 18 19 18 22 23 24 23 21 19 20 19 19 19 19 20 25 26 23 24
33 36 39 39 38 36 33 30 32 31 29 27 24 23 22 20 18 17 16 16 17 19 20 21 22 21 21 21 20 21 23 22 23 22 21 20 21 22 22 21 24 24 26 26 26
33 35 37 37 35 33 31 31 32 30 29 26 23 22 21 20 18 16 16 16 17 18 20 21 22 21 22 21 21 20 21 22 23 24 24 23 22 23 23 25 30 29 29 27 24
32 34 35 34 32 30 30 32 31 29 28 26 22 21 20 18 16 15 15 16 17 18 19 20 21 21 21 21 19 17 20 21 24 25 26 24 22 25 24 29 33 32 31 31 28
30 31 32 31 28 29 31 32 29 27 26 24 23 22 19 18 16 16 16 15 16 18 19 19 20 20 19 20 21 20 23 25 25 27 28 27 23 25 25 30 31 32 30 32 31
25 25 25 26 28 29 31 29 27 26 25 25 23 21 19 18 17 16 15 15 16 17 17 18 19 20 20 22 23 25 27 26 27 27 30 30 23 26 28 29 30 31 31 33 33
28 28 29 30 31 32 30 28 27 25 24 24 23 21 19 18 17 16 16 16 14 15 15 17 18 18 20 23 24 26 27 26 27 27 33 34 25 28 29 30 32 33 34 34 35
28 31 33 33 31 29 28 26 25 25 25 23 21 20 19 18 15 14 13 13 14 14 15 17 18 19 22 24 24 28 26 27 28 29 35 36 29 27 33 34 33 34 37 38 39
29 29 28 27 24 21 19 18 18 18 17 14 13 14 14 12 13 13 13 14 15 14 15 17 18 21 23 25 25 27 29 26 25 29 35 32 31 26 26 34 34 33 34 37 39
27 25 23 21 19 17 16 15 13 11 9 8 7 6 8 8 10 10 11 12 13 13 15 15 18 20 23 24 26 28 30 29 28 28 36 34 34 26 25 27 32 34 34 37 39
24 23 21 20 19 17 15 13 12 12 10 8 6 5 5 5 7 8 10 12 15 16 17 18 20 22 23 26 28 29 30 29 29 28 31 34 31 29 26 26 26 31 34 35 37
21 20 19 18 17 15 13 12 10 7 5 3 1 2 4 5 7 8 11 13 14 16 17 19 22 24 24 25 28 27 28 27 31 30 31 38 36 37 41 43 43 42 40 41 42
18 17 16 15 14 12 11 9 8 6 5 2 1 1 3 5 7 9 12 14 16 17 19 21 22 23 24 26 29 29 31 34 37 40 40 42 46 45 52 50 50 50 48 48 49
14 14 14 14 13 11 9 8 7 5 2 3 4 5 6 8 10 12 14 16 17 19 21 25 25 27 28 30 31 34 36 39 42 45 48 48 51 50 53 56 60 57 56 58 62
14 13 12 11 10 9 7 5 3 2 4 6 7 7 9 11 13 14 16 18 21 22 26 28 32 32 34 36 38 40 43 45 49 52 54 59 58 58 44 61 65 68 70 70 73
11 11 10 8 7 7 5 3 2 2 3 3 5 7 9 12 14 17 19 21 25 28 31 33 35 36 37 39 43 43 48 52 54 57 59 59 61 62 50 69 73 75 78 80 81
9 9 8 8 6 5 4 3 3 3 5 6 8 9 13 17 18 22 26 30 27 32 36 36 43 39 42 42 45 49 52 53 57 58 59 58 61 63 54 71 80 83 87 91 92
9 10 9 7 6 5 4 5 6 7 8 9 12 15 17 21 24 28 27 31 33 37 40 43 45 45 49 46 51 55 56 56 61 61 64 67 71 72 67 80 85 85 91 94 100
7 8 8 7 6 5 6 7 7 9 11 14 16 18 20 23 27 31 34 36 39 42 43 47 50 47 48 50 52 52 53 54 59 67 70 70 70 74 77 84 88 91 89 93 100
7 6 6 7 6 8 8 10 11 12 14 16 17 20 23 27 31 35 39 41 43 46 47 47 51 50 52 54 55 54 58 63 67 71 74 80 78 75 85 90 96 103 108 107 111
8 7 8 7 8 10 10 11 12 14 16 19 21 25 27 32 35 39 41 43 45 48 48 46 47 48 51 52 54 57 61 66 71 71 76 80 81 83 90 97 101 107 102 94 80
6 7 8 9 11 12 13 15 16 18 20 23 26 30 33 36 40 40 42 42 45 46 46 47 48 50 54 58 59 62 67 70 72 77 77 86 88 90 93 99 103 99 62 58 57
10 10 10 11 12 13 15 18 20 21 24 27 29 31 34 38 40 41 41 42 44 44 44 46 46 48 52 58 61 63 65 67 75 79 82 88 91 92 88 82 82 57 50 52 50
14 14 14 14 16 17 19 21 22 24 27 30 32 33 37 40 40 39 41 43 42 44 44 46 51 55 58 59 62 64 66 70 73 81 87 87 91 86 69 54 43 43 46 50 50
17 18 18 18 19 21 23 25 27 29 31 33 34 38 40 43 42 44 45 45 46 48 50 52 54 58 61 60 63 66 69 76 79 80 86 82 83 59 57 47 39 40 44 48 47
23 22 22 21 22 25 27 29 31 34 34 36 38 41 43 43 43 45 45 48 50 51 53 56 60 64 61 63 67 70 76 75 78 79 81 73 70 54 48 42 38 44 48 48 46

GFSSW_500_spd_024.txt.gz
Wind_Speed
38 38 38 41 42 37 36 42 38 34 31 28 26 25 23 22 20 18 17 18 17 17 17 16 16 16 16 16 15 15 15 16 18 19 18 20 21 20 18 19 22 23 26 27 26
34 36 40 43 39 34 33 40 35 32 31 27 25 23 22 20 18 16 16 16 17 17 17 17 17 17 16 16 17 17 16 21 22 24 23 23 22 22 21 21 25 26 28 27 26
34 36 41 39 36 33 31 37 35 31 29 26 23 21 21 19 17 16 14 14 15 17 18 19 19 20 19 19 19 20 19 22 21 22 22 23 22 23 24 22 27 28 28 31 24
35 39 39 36 32 31 30 33 34 30 28 25 22 19 19 17 15 14 13 13 14 15 17 19 21 22 22 21 22 21 22 22 21 21 22 23 22 23 24 23 28 29 28 30 30
35 38 36 34 29 27 28 32 33 30 28 25 21 19 18 16 15 13 13 13 14 15 17 19 21 22 22 21 23 22 22 21 20 20 22 22 23 24 21 27 28 30 31 29 32
35 37 35 33 30 27 27 31 31 29 27 23 19 17 17 16 15 14 14 14 15 16 17 19 20 21 21 22 22 22 22 22 25 26 27 26 23 26 25 25 25 28 29 30 30
30 31 30 29 27 26 28 30 28 26 24 22 20 18 16 17 15 15 15 14 15 15 15 16 18 19 18 22 21 23 24 26 27 28 31 29 23 27 27 25 23 28 30 30 29
26 26 25 25 26 28 29 28 26 24 24 21 19 18 17 16 16 15 14 12 11 11 13 14 15 16 18 20 21 23 24 24 27 27 30 29 22 26 30 29 28 28 30 33 33
25 27 28 29 31 32 30 27 25 24 22 21 19 18 17 17 13 10 9 9 10 12 13 15 17 18 20 22 20 25 21 23 21 30 31 28 21 23 27 30 30 31 32 34 35
26 27 28 30 30 28 26 26 24 22 20 18 16 12 11 9 8 7 8 9 11 13 13 15 16 18 20 20 19 21 26 23 24 24 33 31 27 24 26 29 29 32 34 35 36
27 27 25 23 21 19 16 14 13 12 10 11 11 10 10 8 9 8 8 9 9 11 12 10 17 16 20 22 22 23 24 25 24 26 31 29 27 21 20 23 26 30 33 36 36
25 24 24 22 20 19 17 15 12 11 10 10 9 8 7 5 4 4 5 7 10 12 13 16 17 17 20 22 24 24 25 24 21 24 28 31 29 33 32 37 33 34 36 40 42
21 19 18 18 16 16 15 14 14 12 11 9 7 6 5 3 2 4 5 7 9 11 13 15 18 19 22 24 26 26 30 28 31 30 31 37 35 40 42 43 45 46 46 43 43
17 17 16 15 14 13 13 12 10 8 8 4 4 3 1 1 2 4 6 8 10 11 15 16 18 21 25 27 30 30 34 34 35 39 40 39 48 43 50 55 56 56 55 54 52
16 15 15 14 12 11 10 9 9 8 7 3 2 1 2 3 4 7 8 10 12 16 17 23 23 25 28 31 34 35 38 40 41 42 47 44 50 46 47 55 57 58 60 61 62
14 13 13 12 11 10 9 8 7 3 2 0 1 1 3 6 8 9 12 15 17 21 24 26 31 32 34 35 37 40 42 41 43 46 48 51 55 36 41 56 61 64 66 67 68
11 11 10 9 9 8 7 5 3 3 2 1 2 4 6 9 10 14 15 16 23 27 28 33 34 36 37 39 43 46 47 49 50 52 51 51 48 41 50 56 64 67 70 72 73
8 7 8 7 6 6 4 3 2 1 0 2 4 6 9 13 14 17 21 23 25 30 34 35 41 38 41 40 44 46 46 46 51 50 51 47 47 44 52 61 65 70 69 70 73
8 7 7 7 6 4 2 1 0 1 3 5 8 10 13 16 18 21 21 27 30 33 37 39 41 42 44 44 44 45 46 47 51 52 53 54 53 54 59 71 71 68 67 68 76
5 5 4 4 3 2 2 4 5 7 9 11 12 14 15 17 22 24 28 31 34 37 39 41 41 39 42 40 43 42 44 46 50 55 59 60 60 59 59 62 61 62 66 73 77
4 4 2 3 3 3 4 5 6 7 8 11 13 16 18 22 24 28 32 34 36 38 39 41 43 42 44 44 44 45 49 53 57 60 63 67 69 68 71 73 75 79 82 89 96
4 3 4 4 4 5 6 7 8 9 11 13 15 18 22 25 28 30 34 36 38 38 40 38 41 41 43 44 47 51 55 58 61 63 67 70 73 68 75 79 82 85 92 95 99
4 5 4 5 6 6 7 8 9 11 13 15 18 20 23 26 29 32 34 37 40 41 43 43 44 47 49 51 53 58 61 64 63 66 68 76 78 74 75 79 83 86 92 94 97
8 9 10 10 11 11 11 12 13 14 15 18 20 22 24 27 32 36 38 40 41 42 44 45 45 48 50 51 57 60 62 62 66 70 73 76 79 76 81 83 83 87 90 86 79
13 14 15 14 16 17 17 18 18 19 20 22 25 26 29 31 34 37 40 43 44 44 45 46 48 53 56 59 61 63 62 63 65 72 75 74 81 81 79 82 83 82 75 61 53
16 17 19 20 20 22 22 23 23 23 24 26 29 30 32 35 37 40 42 44 45 49 48 51 53 56 58 59 62 63 63 66 66 69 74 75 75 73 79 79 78 67 49 49 49
21 21 22 23 24 26 26 27 26 26 28 29 31 32 35 36 39 42 42 44 46 49 50 53 56 59 59 62 64 62 62 62 63 67 71 71 74 73 75 76 74 47 44 51 52

GFSSW_500_spd_027.txt.gz
Wind_Speed
39 41 40 40 42 43 43 44 37 34 32 29 28 26 24 22 19 17 17 17 16 16 14 13 13 13 13 13 14 13 12 15 17 14 15 20 19 23 21 19 21 25 24 23 23
40 38 37 38 40 39 40 44 37 34 31 28 27 25 23 21 17 17 17 16 15 14 14 13 14 14 14 14 16 14 14 18 18 19 18 22 21 22 21 22 26 22 29 24 22
38 36 36 38 35 35 39 42 37 34 30 27 26 24 22 19 18 16 15 14 14 13 14 14 15 15 15 16 16 16 17 20 21 22 22 20 19 20 19 21 24 24 29 30 26
35 34 33 32 33 35 39 40 36 33 30 27 24 22 20 19 17 15 14 13 12 11 13 14 16 17 18 18 19 18 21 22 21 23 21 19 17 18 18 23 23 23 26 30 29
31 31 34 35 33 35 41 39 35 32 29 26 23 21 20 18 16 14 13 12 12 13 14 15 16 17 18 18 20 18 21 23 23 21 21 17 20 19 21 23 23 25 24 26 30
35 36 35 34 32 36 39 37 34 31 28 25 22 19 18 16 15 14 13 12 13 13 14 15 15 15 16 19 18 20 19 22 23 24 26 24 23 26 26 24 21 24 26 27 29
32 32 32 32 31 34 37 36 33 30 27 24 20 19 17 15 14 12 12 11 10 11 12 12 12 14 15 18 18 20 19 23 24 25 26 25 20 25 26 26 24 25 29 30 30
25 25 26 27 29 32 34 32 30 28 26 24 20 17 15 13 11 11 10 8 8 8 9 10 12 14 16 16 17 19 19 16 22 23 24 21 13 19 26 27 28 29 31 33 40
25 24 24 25 28 32 31 29 27 26 24 21 18 16 14 11 8 7 6 5 6 7 8 10 13 15 15 15 16 19 17 17 17 25 25 20 13 18 24 27 28 31 34 35 36
25 25 27 27 29 30 29 27 25 24 22 19 16 13 10 8 8 8 7 7 8 9 9 11 13 14 14 14 15 18 20 19 19 20 26 24 15 17 21 24 27 28 30 31 31
23 25 27 28 28 27 25 23 20 17 14 14 13 12 10 9 10 9 8 7 7 7 6 10 12 13 15 15 15 16 18 18 19 22 22 23 21 24 26 29 29 31 32 34 35
26 25 24 23 22 21 20 19 18 15 15 14 14 13 11 9 7 7 6 6 7 7 7 10 10 12 14 17 19 20 22 22 21 26 28 29 30 31 34 37 38 39 40 41 44
23 22 22 21 21 19 18 16 15 13 12 11 10 9 8 8 7 6 4 4 5 6 8 10 9 11 16 19 21 24 29 28 30 29 31 35 37 40 41 45 48 50 51 51 50
19 19 18 17 16 15 15 14 13 12 11 9 8 7 6 6 6 4 3 4 6 7 10 12 15 18 21 25 27 27 32 33 34 37 35 36 40 45 46 49 54 56 56 54 52
15 15 15 14 13 14 13 12 12 13 11 9 8 7 7 5 6 4 4 5 8 12 12 17 19 21 24 29 33 35 36 38 40 42 43 42 45 47 53 56 57 57 57 57 58
13 13 13 12 13 13 13 13 12 11 7 7 6 6 5 4 5 4 6 8 12 16 18 22 25 27 29 34 37 38 39 39 42 42 41 42 44 49 51 53 56 58 60 61 62
11 11 11 11 11 11 10 10 8 7 6 7 6 5 4 2 5 5 6 12 16 19 22 25 26 28 29 31 37 38 39 40 40 40 40 41 45 48 52 54 57 59 61 63 63
7 8 9 10 9 8 8 8 7 7 6 5 4 2 3 6 8 10 11 13 18 21 25 28 31 32 32 33 37 37 37 38 41 40 40 38 44 49 52 56 56 58 59 60 64
6 5 5 5 6 6 5 4 4 3 2 1 3 4 8 8 9 11 15 19 22 25 28 31 32 35 36 38 39 40 39 41 43 45 49 50 52 58 65 62 60 59 61 62 65
6 6 5 4 4 4 3 2 1 2 3 3 5 5 6 10 12 16 17 21 24 27 30 32 32 35 38 37 40 41 40 42 46 52 56 56 59 62 66 63 63 60 58 65 71
5 4 3 4 3 2 1 1 0 1 3 4 6 8 11 13 16 19 22 25 27 31 34 38 39 40 42 42 43 43 45 49 52 56 60 60 62 64 64 64 67 69 71 75 78
4 3 3 3 2 2 1 1 3 5 6 7 9 11 13 16 18 20 22 27 30 32 35 38 41 41 41 43 46 48 49 53 57 60 65 67 66 64 65 66 69 75 79 82 81
6 5 4 4 4 3 4 5 6 8 10 11 12 14 16 18 20 22 24 28 31 36 39 40 43 46 47 50 52 51 52 56 60 62 63 69 68 64 61 66 70 75 79 81 82
11 10 10 10 10 10 11 12 13 14 16 17 19 20 20 22 24 26 29 30 33 37 40 43 45 47 49 51 52 53 54 58 60 64 65 66 72 65 69 70 73 77 76 76 78
17 16 15 15 15 16 16 17 18 19 20 21 22 23 25 27 28 30 33 35 36 39 40 43 45 49 49 51 53 55 56 59 61 65 67 62 67 69 70 72 73 74 73 74 74
20 21 21 20 20 21 21 21 23 23 24 25 26 27 28 30 33 35 36 38 41 43 44 45 48 50 50 53 55 55 58 60 62 64 63 66 66 70 71 71 73 72 67 68 69
22 23 24 26 25 25 26 26 27 28 28 28 29 30 32 33 35 37 39 42 43 46 46 47 50 52 52 55 58 55 58 60 61 62 63 67 70 69 71 71 71 69 65 66 67

GFSSW_500_spd_030.txt.gz
Wind_Speed
48 46 46 46 48 48 46 43 39 35 33 31 29 27 26 23 21 20 19 17 16 14 14 13 13 12 11 11 12 12 14 16 14 14 16 18 19 21 21 21 23 23 21 21 19
47 46 43 43 46 47 45 43 38 35 32 30 28 27 25 22 21 20 18 16 15 14 14 12 11 11 12 12 13 14 16 16 17 15 15 19 20 20 18 23 26 24 22 19 22
44 42 41 41 43 43 43 42 38 35 32 30 28 26 24 22 20 19 17 14 13 12 13 12 11 11 12 13 13 13 17 16 20 19 20 19 20 18 16 22 22 22 26 22 22
41 39 39 39 38 37 42 42 38 35 32 29 27 25 23 21 19 17 15 13 12 12 12 11 12 12 14 14 14 14 19 18 21 22 22 19 17 17 22 19 22 24 27 28 27
37 37 34 31 32 38 43 41 37 34 31 28 27 25 23 20 18 17 14 13 13 13 12 12 12 12 14 15 15 15 17 19 19 23 20 19 21 19 26 24 25 28 30 35 36
30 30 30 32 35 39 44 40 37 33 30 28 26 25 22 21 18 16 14 13 13 12 12 12 12 12 13 15 13 15 14 17 20 23 23 20 22 23 26 25 27 29 35 37 36
34 34 33 35 38 42 42 38 35 32 29 27 26 25 22 19 17 15 14 13 12 11 10 10 11 11 12 12 12 14 12 17 18 20 21 19 18 23 26 28 29 31 32 34 35
33 32 32 36 41 43 40 36 33 31 28 27 25 22 19 17 15 14 12 11 10 10 8 8 9 10 11 11 13 13 12 14 18 19 17 14 11 22 29 29 29 30 29 29 31
30 29 31 36 41 39 37 34 31 29 27 24 22 19 17 16 14 13 11 10 9 8 8 9 10 11 10 10 11 10 9 11 15 19 15 15 13 25 26 26 25 26 25 25 26
27 28 28 31 35 34 32 30 28 26 24 22 20 17 15 14 13 11 10 11 10 10 10 10 9 8 7 8 10 11 11 12 14 18 20 21 21 19 22 25 27 28 29 29 31
25 28 30 31 31 31 29 28 26 24 24 19 18 17 14 12 12 13 12 11 10 8 7 7 8 9 9 9 10 12 13 13 18 22 23 25 27 27 28 33 34 34 35 37 37
21 25 28 29 29 28 27 24 22 20 19 18 16 14 14 13 12 11 10 10 8 6 7 7 7 8 11 12 13 15 17 18 21 24 28 29 33 35 36 37 40 42 42 42 43
24 22 22 22 23 23 22 22 21 21 20 18 16 13 11 11 11 9 9 8 6 5 5 5 6 10 13 15 17 20 22 25 26 27 32 34 39 39 41 41 41 42 44 45 45
20 21 21 21 20 18 18 18 17 14 14 13 13 11 11 10 10 8 7 6 6 6 6 6 9 12 16 19 21 24 27 30 32 32 32 36 40 42 42 43 42 43 45 45 46
18 17 17 17 15 16 16 16 15 14 13 13 12 10 11 12 12 8 6 6 7 5 9 9 13 15 20 23 25 27 29 32 33 34 34 36 40 44 44 44 45 46 49 50 52
14 13 14 14 15 14 14 14 14 15 7 12 11 10 10 9 9 7 7 7 7 8 10 12 15 19 24 28 28 28 29 33 33 34 36 37 42 46 47 48 50 52 53 56 59
10 10 11 11 12 12 13 12 12 11 10 10 10 10 10 9 7 7 7 7 8 9 12 16 19 22 24 28 30 31 33 34 38 39 41 42 48 48 51 52 53 56 59 62 65
9 9 9 10 10 10 11 11 11 11 11 11 10 9 8 8 7 7 8 8 10 13 16 18 20 23 26 29 32 34 35 38 41 43 45 43 49 51 51 55 57 60 62 66 67
8 8 9 9 9 10 10 11 11 10 9 9 10 9 9 7 6 6 8 11 13 16 19 21 23 26 31 33 36 39 39 41 44 46 48 49 51 54 56 59 62 64 67 69 68
6 8 8 9 9 9 9 8 9 9 9 10 9 8 8 6 7 10 12 14 15 18 21 24 26 30 34 37 38 38 39 42 46 49 53 54 56 55 60 65 66 69 70 70 70
6 7 8 8 9 8 8 9 8 8 7 7 7 7 7 9 11 14 15 16 19 21 24 27 29 32 35 36 38 41 43 46 48 49 54 57 58 56 60 63 65 68 66 65 69
6 6 8 9 8 8 8 7 7 6 7 7 8 9 10 11 14 16 19 21 23 27 29 32 33 35 37 41 41 42 45 47 50 52 56 60 60 58 59 62 66 65 65 69 73
8 7 8 9 8 8 9 9 8 8 9 10 12 14 16 18 19 21 23 25 28 30 33 36 37 39 42 44 44 43 45 49 51 53 54 60 60 56 59 59 61 66 69 71 77
13 12 13 13 12 13 13 13 13 14 15 16 18 19 21 22 23 25 28 29 31 33 36 39 40 41 44 46 47 46 47 49 53 55 58 57 64 57 62 62 64 66 73 77 81
18 18 18 18 18 17 18 18 19 19 20 21 23 24 25 26 27 29 31 33 34 36 38 41 42 44 45 47 47 47 48 51 54 56 59 57 64 63 63 66 69 72 74 77 76
21 22 22 22 23 23 24 24 24 25 25 26 27 28 30 31 32 33 35 36 37 39 41 42 45 46 45 47 49 48 48 53 55 58 60 63 61 65 66 72 75 74 74 75 77
25 25 25 25 26 26 27 28 29 30 30 31 31 33 34 34 35 37 39 39 41 42 43 44 47 48 49 52 52 48 50 55 56 58 60 64 65 65 69 74 75 77 78 79 78

GFSSW_500_spd_033.txt.gz
Wind_Speed
44 50 48 50 52 51 47 43 40 38 35 32 30 28 27 25 24 23 22 20 19 17 15 14 12 12 11 10 11 12 13 14 13 13 16 16 17 18 19 23 25 24 21 19 20
47 47 49 48 49 47 45 43 40 37 34 31 29 27 26 24 23 22 21 19 17 16 14 13 11 11 11 12 12 12 14 15 16 16 16 18 18 18 21 27 24 22 22 21 18
45 46 48 46 47 47 45 43 40 36 33 30 28 27 26 24 23 21 20 17 16 15 13 11 11 11 11 11 10 12 15 16 20 19 19 18 20 20 23 23 25 26 26 25 23
43 45 44 45 46 47 44 43 39 35 32 30 28 27 25 23 22 20 18 16 15 14 12 12 11 11 12 12 12 12 15 15 19 21 18 16 19 19 24 22 26 28 27 29 29
44 42 40 42 44 44 44 42 38 35 32 29 28 26 24 23 21 19 17 16 15 14 13 13 12 12 13 12 11 13 15 16 18 17 16 14 17 22 27 28 29 31 32 32 31
39 38 37 36 36 40 42 41 37 33 31 29 28 26 24 21 20 18 17 16 14 14 14 13 12 12 13 11 11 11 11 15 15 16 15 16 20 24 26 27 28 27 27 28 28
31 30 31 33 36 39 43 39 35 32 30 29 28 26 24 22 20 19 18 16 15 14 13 13 12 12 12 9 10 10 12 15 15 17 13 13 18 24 23 24 22 23 24 26 28
31 31 31 33 36 41 42 37 34 32 31 30 28 25 23 22 20 19 17 16 14 13 12 12 12 11 10 10 10 11 10 14 16 14 14 14 18 25 27 27 28 27 26 26 26
29 31 33 34 37 43 39 35 33 31 31 29 26 25 22 21 19 18 16 14 13 13 12 12 12 11 10 11 10 8 8 12 18 14 15 17 16 20 27 28 28 27 28 30 31
25 29 33 36 42 38 34 32 31 30 29 27 25 23 22 20 18 17 15 14 14 13 13 12 11 10 8 10 8 10 10 12 15 17 20 23 21 21 25 29 31 31 32 33 34
24 28 35 39 36 33 30 29 28 27 26 24 22 20 19 18 17 16 16 16 15 12 11 11 10 9 10 10 9 10 11 13 18 21 22 24 27 28 28 30 33 34 35 36 37
27 29 32 31 29 27 26 25 24 23 22 20 19 18 17 17 17 16 16 13 12 10 10 10 9 9 9 9 10 11 13 16 19 23 25 28 29 29 29 30 32 34 36 37 39
26 29 30 30 30 29 27 26 25 23 22 20 19 18 17 16 14 14 13 12 10 10 9 8 9 9 11 11 13 15 17 19 21 25 28 32 32 30 29 30 31 31 33 35 38
23 23 24 24 23 23 23 24 22 20 20 19 18 16 15 15 15 13 11 11 11 9 8 9 9 10 13 14 16 18 22 23 24 26 28 31 38 32 33 34 37 38 40 43 45
17 19 20 20 20 20 19 19 19 17 18 17 15 14 14 13 13 12 11 10 9 10 10 9 12 14 15 16 18 21 23 25 27 29 29 31 40 38 38 41 45 47 50 53 54
16 16 15 15 15 15 14 14 15 15 15 12 13 13 14 13 13 12 11 11 11 12 13 12 12 15 16 17 18 21 24 27 27 30 33 36 40 42 46 50 52 54 56 58 60
12 12 11 12 12 13 13 14 14 15 11 11 11 12 12 12 12 13 13 13 13 12 12 12 13 15 18 19 21 23 26 29 33 34 39 40 44 47 51 53 55 58 60 62 63
9 10 10 10 10 11 12 13 13 14 12 11 12 12 12 13 14 15 15 14 13 13 13 15 16 19 21 22 23 25 28 33 37 39 40 42 46 49 50 55 57 60 62 64 65
7 7 7 8 9 10 11 12 13 11 12 12 13 14 14 14 15 15 16 15 15 16 16 17 19 21 22 23 27 29 33 37 40 43 44 46 47 49 52 56 58 62 63 64 67
7 9 9 10 10 11 11 12 12 12 13 14 14 15 15 15 15 16 16 16 17 18 19 21 22 23 25 28 31 34 38 41 43 46 50 50 50 50 55 59 61 63 64 66 67
6 9 10 12 13 13 13 13 13 14 15 15 15 16 16 15 15 15 16 17 17 19 22 24 25 28 31 33 36 39 41 43 44 47 52 55 52 51 57 60 63 65 66 67 67
6 7 9 10 12 12 13 13 15 15 15 14 14 15 15 16 16 16 17 19 22 24 26 28 29 32 34 37 39 41 44 46 48 51 53 57 54 54 56 60 63 65 66 67 68
8 8 9 10 11 12 12 13 14 14 14 14 15 16 16 17 19 21 23 25 27 29 31 32 34 37 40 41 43 44 46 47 51 53 52 58 54 56 59 61 62 65 66 66 71
15 13 13 13 13 14 14 15 16 16 17 17 18 19 20 21 23 25 26 27 30 32 35 37 38 41 44 46 46 46 47 49 52 55 57 55 59 51 59 60 61 63 67 71 73
17 19 20 19 19 19 19 20 21 21 22 23 23 24 25 26 28 29 31 32 34 36 38 41 42 44 46 47 48 48 45 49 54 56 59 56 62 58 61 64 65 68 69 71 74
19 19 21 24 25 26 26 26 26 27 28 29 30 31 31 32 33 34 36 37 38 40 42 44 47 48 47 49 51 48 45 51 54 56 58 61 60 61 62 65 69 68 69 74 75
23 23 25 26 25 26 27 29 30 31 31 32 34 35 35 37 38 40 41 42 43 44 46 47 50 53 53 52 54 52 51 52 55 57 59 59 60 62 63 68 69 67 73 77 81

GFSSW_500_spd_036.txt.gz
Wind_Speed
36 39 44 49 51 53 49 46 41 38 35 33 30 30 27 26 26 25 24 22 21 19 18 16 14 12 11 11 10 10 11 12 12 13 15 16 17 16 20 22 22 22 19 17 15
40 40 46 50 51 52 47 44 41 38 35 32 30 28 27 26 26 24 23 21 20 19 16 16 15 14 12 11 11 11 14 14 14 14 15 18 18 20 24 27 24 24 18 17 17
41 43 48 49 50 48 44 42 40 37 35 32 29 27 27 26 25 24 21 20 20 19 17 15 14 11 11 11 11 13 15 15 17 16 15 17 20 25 26 23 23 23 25 22 19
39 44 47 47 47 44 41 41 39 36 34 31 28 27 26 26 26 22 21 19 18 17 17 15 14 13 13 11 12 13 15 15 16 17 14 15 18 26 22 22 23 24 24 26 26
38 44 47 45 44 41 42 41 38 35 33 30 28 26 25 25 23 22 20 19 17 16 15 14 14 13 12 12 12 13 14 15 16 14 13 14 21 22 21 21 22 23 22 21 22
41 46 45 43 44 43 43 40 37 34 32 30 28 27 25 23 22 21 20 19 18 17 16 15 14 14 12 12 12 12 14 16 15 13 12 16 21 20 19 20 20 21 21 20 21
43 43 43 43 44 44 43 38 35 33 31 30 28 27 25 23 21 20 19 18 17 16 15 15 15 14 12 12 12 12 14 15 15 13 12 17 18 20 20 20 20 19 21 22 22
36 34 34 36 41 43 41 36 34 32 31 30 29 27 24 23 21 20 18 16 16 15 15 14 14 13 13 12 12 12 13 16 14 13 13 14 17 20 22 23 24 23 24 25 26
31 31 33 35 38 42 39 35 32 32 32 31 28 26 24 22 20 19 17 16 16 14 14 14 14 14 13 13 11 12 12 14 15 13 14 15 15 19 22 25 27 27 28 29 31
27 28 30 33 38 41 37 33 32 32 31 30 27 25 23 20 20 19 18 17 17 15 14 15 15 13 13 12 12 11 12 14 16 15 17 17 18 19 22 25 28 30 31 32 33
25 27 29 34 41 37 32 29 28 29 28 25 23 22 21 20 20 18 18 16 16 16 16 16 15 13 11 12 11 11 12 15 17 17 18 21 22 23 25 27 29 30 31 32 33
23 27 32 37 34 29 26 24 23 24 23 22 20 21 19 18 18 18 17 17 17 16 16 15 13 12 11 10 10 11 13 16 18 20 21 22 22 22 23 25 26 27 29 29 30
27 31 32 28 26 23 22 21 21 21 21 20 18 18 17 17 17 17 17 16 16 16 15 13 12 11 10 10 11 13 15 17 19 22 23 26 25 24 26 26 27 29 29 31 35
29 30 29 27 26 24 24 23 22 22 21 20 20 18 19 18 17 16 17 16 15 14 14 12 12 12 12 12 13 16 17 19 20 22 25 27 30 24 26 26 30 32 35 40 44
21 23 24 24 23 21 21 21 21 21 19 18 16 15 16 16 15 15 14 14 13 13 13 12 14 14 15 15 15 18 19 19 21 24 26 28 34 27 28 31 37 43 45 48 50
16 17 19 19 19 18 18 18 18 18 16 14 15 16 15 14 14 14 13 13 13 14 15 15 16 16 17 16 17 19 21 23 24 25 25 29 33 33 37 39 44 47 50 52 54
14 15 15 16 16 16 16 16 16 14 15 12 12 13 13 13 13 14 14 14 16 17 17 17 16 17 18 19 20 22 24 27 27 27 30 33 37 37 41 44 48 51 53 55 57
11 12 11 12 12 12 13 13 13 12 15 10 11 12 13 13 14 15 17 17 18 18 19 18 19 19 20 21 22 25 27 29 34 34 35 38 41 44 44 50 53 54 56 59 59
8 8 8 9 10 11 12 12 12 13 13 13 14 14 14 14 16 18 19 19 19 19 19 20 20 21 22 23 27 28 29 32 35 38 42 44 43 46 49 53 55 59 59 61 63
5 7 9 10 10 11 11 12 13 14 14 14 15 16 16 16 17 19 20 19 20 20 20 21 22 23 25 28 30 31 33 36 39 44 47 48 47 48 52 56 59 60 62 62 65
4 6 7 8 10 11 11 12 13 14 16 16 17 17 18 18 19 20 20 20 20 21 21 23 24 27 30 31 33 34 37 40 43 44 49 53 51 51 54 58 61 61 64 66 69
5 6 8 10 10 12 13 14 15 16 16 17 18 19 19 18 18 18 18 19 20 23 25 26 28 31 33 34 36 37 40 42 46 47 49 52 53 52 55 59 62 64 67 68 70
6 6 7 8 9 11 11 13 13 14 15 16 17 18 18 19 19 19 21 23 24 26 27 30 32 35 38 39 40 40 43 45 48 49 50 54 53 55 57 62 63 65 66 69 71
11 10 10 11 11 11 12 13 14 15 16 17 18 19 21 22 23 24 25 27 28 30 33 36 37 39 42 44 44 45 47 48 50 53 56 53 58 52 60 62 62 64 67 67 70
14 15 16 15 16 16 17 18 19 20 21 22 23 25 26 27 28 30 31 33 34 36 39 41 41 42 44 46 47 48 50 52 53 56 59 57 59 57 61 62 64 65 66 71 74
18 18 19 20 21 22 23 24 25 26 27 28 29 31 32 34 35 35 37 38 38 40 42 44 46 47 47 48 51 52 51 52 57 57 60 60 60 63 65 66 65 67 71 73 74
20 20 22 23 24 26 27 28 29 29 30 32 33 34 35 37 38 39 40 41 43 43 45 46 48 50 51 50 53 54 56 57 57 58 58 60 62 65 66 66 67 67 69 72 78

GFSSW_500_spd_039.txt.gz
Wind_Speed
36 44 47 48 52 51 51 49 46 43 39 37 35 33 30 30 29 28 26 25 23 22 21 20 17 15 14 13 11 10 11 11 11 11 12 13 15 15 15 14 16 14 12 12 11
39 45 46 47 50 48 48 47 45 42 39 36 34 31 30 29 28 27 26 25 24 23 21 20 18 16 14 13 11 12 13 12 12 13 14 18 18 19 19 19 20 17 11 11 11
40 43 45 46 48 46 46 46 43 40 38 35 33 30 29 28 27 27 25 24 24 22 21 21 19 16 15 13 12 13 13 13 14 14 15 20 18 19 19 19 18 20 20 18 16
40 42 43 45 46 45 45 44 41 39 37 34 32 30 29 27 26 27 24 25 21 21 21 19 19 16 15 13 12 12 14 14 14 14 16 19 21 19 17 18 17 18 18 17 16
39 40 42 44 44 43 44 42 40 37 35 33 31 29 27 26 24 24 23 23 23 21 19 18 17 16 13 13 12 12 15 15 15 15 17 18 19 17 16 16 15 15 14 14 14
35 38 41 44 42 43 42 40 38 36 33 31 29 27 26 25 27 24 23 22 21 20 20 19 17 15 14 14 13 14 16 17 15 14 17 17 16 15 13 12 13 14 15 15 15
36 39 43 42 41 41 40 39 37 35 32 30 28 27 26 23 22 22 22 21 20 19 19 17 16 14 15 14 14 15 17 16 16 14 16 15 13 13 14 14 15 15 16 17 18
38 42 42 41 40 40 40 37 35 33 31 30 28 26 24 24 22 22 21 20 18 18 17 16 14 14 15 15 15 17 17 17 16 13 12 13 13 15 16 17 19 20 21 22 23
39 41 42 41 42 40 36 35 33 31 30 29 27 26 24 22 22 21 19 18 17 15 14 14 15 15 15 15 17 17 16 17 14 12 12 13 14 16 18 20 21 23 25 25 26
36 35 35 40 41 36 33 33 31 30 30 29 27 25 24 22 22 20 19 18 16 15 15 15 15 15 15 17 16 16 16 15 16 11 13 14 15 16 18 20 22 24 25 25 26
28 28 31 38 40 35 31 29 28 28 28 25 23 22 21 20 20 18 18 17 16 16 16 16 16 16 16 17 16 15 16 16 15 13 14 16 16 17 20 22 23 25 26 26 26
26 28 32 38 37 31 26 24 23 25 25 23 21 20 19 19 18 18 18 17 17 17 17 17 17 16 17 16 15 15 14 16 16 16 16 18 18 19 21 23 25 26 27 28 29
24 27 32 37 31 25 21 20 21 23 23 21 19 20 18 17 16 16 17 17 17 17 17 18 16 17 16 15 14 15 16 17 18 17 18 19 17 20 22 25 28 29 30 31 32
29 32 34 30 24 20 19 18 18 19 20 19 18 18 18 17 16 16 17 17 18 17 19 17 17 17 15 15 16 16 18 18 19 19 19 20 23 19 23 27 28 30 31 33 36
29 28 27 25 22 22 21 20 20 20 20 19 19 16 16 17 15 16 17 17 17 18 16 15 16 16 16 17 18 19 20 19 19 21 23 25 27 21 26 28 29 33 35 38 42
19 20 19 19 18 18 19 20 20 18 15 13 11 14 15 14 16 17 18 17 17 16 16 16 16 18 18 19 20 21 21 21 23 24 25 26 30 27 30 31 35 37 40 44 46
16 16 16 16 14 14 13 14 15 13 14 14 12 13 14 15 15 15 15 15 15 15 17 17 18 19 19 20 21 22 23 25 26 26 28 30 33 32 35 37 40 43 46 47 50
14 15 15 16 16 16 16 16 15 14 15 13 13 13 12 13 14 15 15 16 17 17 18 18 18 19 20 21 22 23 24 27 31 31 33 34 36 38 37 42 45 48 50 51 53
9 11 12 13 14 15 15 14 13 15 15 16 14 13 14 14 15 15 16 17 18 18 19 20 20 21 22 23 24 24 27 30 34 37 39 38 37 39 41 46 51 53 54 54 55
5 6 8 10 12 13 13 14 14 15 15 16 16 16 16 16 16 17 18 18 19 20 20 21 21 22 23 24 26 28 30 33 37 42 44 44 42 43 47 51 54 57 56 57 59
3 4 5 6 7 9 11 12 13 15 15 16 16 16 17 17 18 18 18 20 20 20 21 22 23 23 25 27 29 30 33 37 40 42 47 51 47 46 49 53 58 59 58 60 60
0 3 3 6 8 9 11 12 13 14 15 15 16 17 18 19 19 19 19 20 20 20 21 23 25 27 29 30 32 35 38 40 44 45 48 51 51 50 54 58 61 61 63 64 67
4 4 3 3 5 7 9 10 11 13 14 14 15 17 17 18 18 18 19 20 22 24 25 27 29 31 34 35 38 39 41 44 47 49 49 54 51 56 58 60 60 61 63 67 70
7 8 8 8 7 8 8 9 10 12 13 13 14 15 16 18 19 21 23 24 26 28 31 33 34 37 39 41 42 43 45 47 50 52 55 53 57 50 58 60 60 62 65 68 70
10 10 10 11 13 13 14 15 15 16 17 18 19 20 22 23 25 27 29 30 32 34 37 39 39 40 42 45 47 47 47 49 51 53 57 56 59 53 58 60 58 61 65 66 67
15 15 15 14 15 16 17 18 19 21 23 24 26 27 28 30 31 33 34 36 37 38 41 42 44 45 45 47 51 52 48 51 53 57 58 57 56 56 59 59 61 64 65 66 67
18 19 19 19 19 19 20 21 22 24 25 27 28 30 31 32 34 35 36 38 40 41 43 44 46 48 50 49 54 54 49 52 54 55 56 57 57 59 60 61 62 62 65 66 67

GFSSW_500_spd_042.txt.gz
Wind_Speed
39 47 46 48 49 51 53 52 50 48 46 43 40 37 34 33 32 31 29 28 27 25 23 22 20 18 16 15 14 14 13 14 13 14 15 15 15 14 13 12 12 11 11 12 13
39 46 47 50 50 50 51 50 49 48 45 42 40 36 34 33 32 30 29 28 27 25 24 22 21 19 17 16 15 14 14 13 13 15 15 14 16 14 14 13 12 11 11 12 12
33 44 49 50 50 49 48 48 48 46 44 41 39 35 33 32 30 30 28 28 26 25 24 22 21 19 18 16 16 16 15 13 14 15 16 15 17 16 17 17 15 13 10 11 13
36 45 49 49 48 48 45 47 47 45 43 40 37 34 32 30 30 30 28 27 25 25 24 23 22 20 18 18 17 16 16 15 14 16 16 17 17 16 16 16 15 14 13 12 11
39 45 46 46 44 47 45 46 46 44 41 39 35 33 30 30 28 25 28 27 25 25 24 23 22 21 20 19 18 17 17 16 15 16 17 18 17 15 14 14 13 13 13 12 13
38 41 40 42 46 46 45 46 44 42 39 36 34 32 30 28 26 27 26 25 24 20 24 24 22 21 20 19 17 17 18 18 17 17 17 17 14 13 12 11 12 13 13 12 13
32 36 40 42 46 45 45 44 42 39 36 33 32 30 29 27 26 28 23 25 25 26 23 23 21 20 20 18 17 18 18 19 20 18 16 16 14 11 11 12 13 14 15 15 16
34 39 40 45 44 43 43 42 39 37 34 31 29 29 27 26 28 25 23 23 24 23 22 21 20 19 19 18 17 18 19 20 20 19 17 15 12 12 12 14 16 17 18 19 20
40 40 41 41 42 41 41 39 37 34 32 30 28 28 26 25 25 24 22 21 21 20 19 19 19 19 18 18 18 18 20 21 20 19 17 16 13 14 15 16 18 19 20 20 20
39 36 35 38 39 39 38 37 35 33 31 30 28 26 25 24 23 23 21 20 18 17 17 17 17 17 17 18 18 19 20 20 21 17 17 16 15 15 16 18 20 20 21 23 24
35 35 35 37 37 36 35 34 34 31 29 27 25 23 22 21 21 20 19 17 17 16 16 16 16 17 18 19 19 19 20 21 19 18 17 17 17 18 19 20 22 23 24 26 27
33 35 37 37 33 31 31 29 26 25 25 24 22 21 20 18 18 17 17 16 16 15 16 18 18 19 20 19 20 20 20 20 19 18 18 20 20 20 20 22 24 25 26 28 28
31 33 36 36 30 27 25 24 24 24 23 21 20 19 17 17 16 16 16 16 16 17 19 20 20 21 20 20 19 20 19 20 20 20 20 21 19 19 21 24 25 27 29 29 31
29 33 37 34 29 24 20 20 19 20 20 19 18 18 17 17 17 17 18 19 19 20 21 22 21 22 21 19 19 19 20 21 22 22 21 20 21 19 21 24 26 28 30 32 34
30 34 35 30 25 21 19 17 17 17 19 19 18 16 17 18 17 17 18 19 19 20 22 20 21 21 19 19 19 20 21 22 22 22 21 21 26 20 23 28 30 32 33 35 36
29 30 26 23 21 20 20 20 21 21 19 16 15 16 16 16 17 17 18 19 20 20 20 19 19 19 19 19 21 21 22 23 23 24 25 25 27 26 28 30 34 36 37 38 40
18 18 16 15 15 15 15 15 16 15 15 13 12 13 14 16 17 17 17 19 18 17 16 17 17 18 20 21 22 22 23 25 26 25 26 27 30 30 33 37 39 41 42 43 45
14 14 15 14 14 13 13 14 13 15 15 15 16 16 15 16 16 16 15 15 15 16 17 17 18 19 20 21 22 23 24 26 29 28 31 30 32 34 36 42 44 46 48 49 49
9 9 10 11 13 14 14 15 15 17 18 18 18 16 14 15 15 15 15 16 16 17 18 19 20 21 21 22 23 24 25 27 30 32 34 35 35 36 41 45 48 51 53 53 54
10 9 9 9 10 11 12 13 15 16 17 17 17 17 16 16 16 16 17 17 17 18 19 20 21 21 22 23 24 25 27 29 31 36 39 42 41 40 46 50 52 54 56 58 60
7 9 10 11 11 12 12 13 15 16 16 16 17 16 16 16 17 17 17 18 18 19 20 21 22 22 23 24 26 28 30 33 36 38 42 47 47 44 50 51 56 58 59 62 62
5 6 7 8 9 10 11 11 12 13 13 14 15 16 16 17 18 18 19 20 20 20 20 21 23 23 25 27 29 31 34 37 41 44 45 49 51 45 53 55 58 59 62 63 63
5 5 5 6 7 8 9 10 11 12 13 13 15 16 16 17 17 18 18 19 20 21 22 24 26 28 30 32 34 37 38 41 44 47 47 52 50 53 55 59 62 60 62 63 65
4 5 7 7 8 8 8 9 10 10 11 12 13 14 14 15 16 17 19 21 22 24 26 29 30 33 35 39 40 41 42 44 47 49 51 54 53 49 56 63 61 62 62 64 66
8 7 7 8 9 11 12 12 13 13 14 15 16 17 18 19 21 22 24 26 28 30 33 35 36 37 39 41 43 44 44 47 48 49 58 53 57 53 58 60 61 62 63 65 65
12 12 12 13 13 14 14 15 16 16 17 18 19 20 22 24 25 27 28 30 32 33 36 37 39 41 41 43 47 48 46 48 50 51 56 57 57 56 60 60 60 61 61 63 65
17 17 17 17 17 18 18 18 19 20 21 22 23 25 26 28 29 31 33 34 36 37 39 40 43 45 47 46 50 52 49 49 52 52 56 58 59 61 62 59 59 59 61 62 64

GFSSW_500_spd_045.txt.gz
Wind_Speed
32 36 49 50 48 49 51 51 49 52 51 48 45 40 38 37 36 35 33 32 30 28 26 24 23 21 18 17 17 16 15 18 17 16 16 16 16 16 17 17 17 17 19 19 19
29 31 41 51 50 51 51 50 48 51 51 47 44 40 38 36 35 34 33 32 30 29 27 25 24 22 19 18 18 17 18 16 17 17 16 16 16 15 16 16 16 17 18 18 18
26 33 38 47 51 53 51 49 46 50 50 46 43 40 37 35 35 33 32 31 30 28 28 27 25 23 21 19 18 19 19 17 17 18 17 17 16 16 17 15 14 14 15 16 18
30 34 38 46 51 52 49 49 47 49 48 45 42 39 36 35 34 33 31 30 29 29 28 27 26 24 22 20 20 21 20 18 18 18 18 18 18 18 19 17 16 15 15 15 15
33 34 40 46 51 48 48 48 47 48 46 43 41 37 35 33 32 31 30 29 28 28 28 27 25 25 23 22 22 23 21 19 18 19 19 19 19 18 18 17 17 16 15 14 15
32 34 39 48 46 45 49 47 46 47 44 42 38 35 32 32 31 29 28 27 27 27 26 25 25 24 24 23 22 23 22 20 19 20 20 19 18 17 18 17 16 16 15 14 15
33 37 43 42 42 46 47 45 45 45 42 39 35 33 32 31 28 25 25 28 27 26 25 26 25 25 23 23 23 23 23 22 20 21 20 20 17 18 17 16 16 16 16 17 18
32 36 38 41 45 47 44 44 44 42 39 36 33 31 30 28 27 26 28 25 21 24 23 23 25 25 23 23 22 22 23 23 19 22 20 20 20 17 17 17 17 18 19 20 20
34 38 41 44 45 42 42 42 41 39 36 34 31 30 28 27 27 26 24 22 25 24 25 24 24 23 22 21 21 22 22 24 24 21 21 21 21 17 17 18 19 21 21 21 21
37 39 41 42 40 40 40 40 39 36 34 32 30 28 27 26 26 27 25 22 23 22 23 22 21 20 20 20 20 22 22 25 24 20 24 21 20 18 20 21 23 24 23 23 23
33 35 37 36 37 37 38 38 37 35 33 28 27 24 24 24 24 24 24 22 20 20 19 19 19 19 19 20 21 22 23 23 26 24 23 22 20 20 22 23 25 25 25 27 26
30 29 30 33 34 33 34 34 33 30 28 26 24 23 22 22 21 21 20 19 18 17 17 18 19 16 20 21 22 23 24 25 24 23 22 22 22 23 24 25 26 27 27 27 27
29 29 29 30 29 29 30 30 28 25 23 21 20 20 19 19 17 17 17 17 16 17 18 19 18 20 22 23 23 24 25 25 24 21 23 23 23 25 25 25 27 28 28 28 29
31 28 26 25 26 27 25 25 24 22 20 19 18 17 16 16 16 16 16 17 18 19 21 24 20 23 24 25 24 27 23 24 24 24 25 22 26 21 24 26 28 29 30 31 32
34 32 28 27 23 22 21 20 20 20 17 18 16 16 16 16 16 17 18 20 20 22 23 25 23 24 25 24 24 24 24 24 25 26 25 24 25 25 24 27 29 31 32 33 36
35 31 27 24 22 21 20 19 20 20 18 16 17 17 18 18 19 18 19 20 21 21 23 23 24 24 23 22 22 23 24 25 26 26 27 25 25 28 25 28 31 33 35 36 39
29 26 22 19 17 17 17 18 19 20 16 14 14 16 16 17 17 18 20 21 22 22 24 22 21 21 20 21 23 24 25 26 27 26 27 28 29 26 32 33 35 36 38 41 44
18 16 14 12 12 13 13 14 15 15 17 15 15 14 16 17 18 20 21 21 21 21 21 21 21 20 21 22 23 24 25 25 27 27 30 33 32 34 33 36 40 42 44 46 49
10 10 10 10 12 13 15 16 17 16 17 18 18 17 19 19 18 19 19 19 19 19 20 20 22 21 22 23 24 23 25 26 29 31 33 35 37 35 37 40 45 46 48 51 52
14 13 12 11 10 11 12 13 13 16 17 18 19 18 19 19 18 19 19 18 19 19 20 21 24 23 23 24 24 25 26 27 31 32 36 34 41 46 44 46 49 52 54 56 57
9 9 10 11 12 12 13 12 14 14 15 16 17 17 18 19 19 19 18 19 20 20 21 22 24 22 25 24 25 26 28 30 32 35 39 41 41 45 48 51 54 56 59 60 62
10 10 11 11 12 14 15 15 16 16 16 17 17 17 18 19 18 19 19 20 21 21 22 23 24 24 24 26 27 28 30 32 36 39 44 45 48 47 49 53 57 60 63 64 66
9 10 12 13 14 14 14 15 15 15 16 16 17 17 18 19 19 20 20 21 21 22 22 23 25 26 27 30 31 32 34 37 41 44 43 47 48 49 53 56 64 61 61 63 66
9 9 9 11 11 12 13 14 14 14 15 15 15 16 17 18 18 18 19 20 21 23 25 27 27 30 32 36 38 39 39 40 44 46 46 51 51 51 53 63 67 68 67 65 66
9 9 10 11 11 12 12 12 13 14 15 15 16 17 18 19 20 21 22 24 26 28 30 33 33 35 36 38 40 41 41 45 47 45 51 52 55 52 57 60 63 65 65 64 65
14 14 14 14 14 14 15 15 17 17 18 19 20 20 21 22 23 25 27 28 29 31 33 35 38 38 38 41 43 46 44 46 47 50 55 55 56 59 59 61 59 60 60 61 61
17 17 17 17 18 18 18 18 19 20 20 21 22 23 24 25 26 28 30 31 33 35 37 38 40 43 44 45 46 47 48 48 50 50 53 54 54 58 57 56 55 56 57 59 64